Regional Weather Roundup
Issued by NWS

Home | Current Version | Previous Version | Text Only | Print | Product List | Glossary Off
Versions: 1 2 3 4 5 6 7 8 9 10 11 12 13 14 15 16 17 18 19 20 21 22 23 24 25 26 27 28

000
ASUS45 KBOU 271207
RWRCO

WEATHER ROUNDUP FOR COLORADO
NATIONAL WEATHER SERVICE DENVER/BOULDER CO
500 AM MST MON FEB 27 2017

NOTE: "FAIR" INDICATES FEW OR NO CLOUDS BELOW 12000 FEET WITH NO
SIGNIFICANT WEATHER AND/OR OBSTRUCTIONS TO VISIBILITY.

COZ001>005-013-030-031-271300-
...NORTHWEST COLORADO...

CITY           SKY/WX    TMP DP  RH WIND       PRES   REMARKS
CRAIG          CLOUDY    29  16  58 CALM      29.65F
HAYDEN         FAIR      23  10  58 E7        29.65F WCI  15
MEEKER         MOCLDY    27  17  66 E7        29.66F WCI  19
MOUNT WERNER   NOT AVBL
STEAMBOAT SPGS CLOUDY    15   7  72 CALM      29.66F
WALDEN         NOT AVBL
$$

COZ006>008-011-271300-
...WEST CENTRAL VALLEYS...

CITY           SKY/WX    TMP DP  RH WIND       PRES   REMARKS
GRAND JUNCTION CLOUDY    39  20  46 S16       29.70S
MONTROSE       FAIR      36  15  42 VRB5      29.78S
EAGLE          MOCLDY    19   7  59 E9        29.74S WCI   8
RIFLE          CLOUDY    31  18  58 W6        29.70F WCI  25
DELTA          CLOUDY    37  17  45 E8        29.76F
NUCLA          CLOUDY    36  23  60 SE7       29.82S
$$

COZ017>023-064>068-271300-
...SOUTHWEST COLORADO...

CITY           SKY/WX    TMP DP  RH WIND       PRES   REMARKS
DURANGO        CLOUDY    28  17  63 CALM      29.85S
CORTEZ         CLOUDY    34  23  64 W5        29.84R WCI  30
PAGOSA SPRINGS LGT SNOW  24  23  96 CALM      29.87S
TELLURIDE      FAIR      24  16  70 SE9G17    29.77S WCI  14
WOLF CREEK PAS HVY SNOW  10  10 100 S23G36    29.79S VSB 1/4 WCI -10
$$

COZ009-010-012-014-032>034-037-058>063-271300-
...CENTRAL COLORADO...

CITY           SKY/WX    TMP DP  RH WIND       PRES   REMARKS
ASPEN          CLOUDY    20  10  65 W6        29.70R WCI  12
BUENA VISTA    FAIR      23   3  41 SE14      29.74S WCI  11
COPPER MTN     FAIR      12   1  62 MISG      29.66R
BERTHOUD PASS  FAIR       5  -4  66 W36G62    29.58R HAZE    WCI -21
COTTONWOOD PAS FAIR      23   3  42 W8G21     29.71S WCI  14
GUNNISON       FAIR       5  -1  76 NE3       29.84R
KREMMLING      CLOUDY    21  12  68 CALM      29.72S
LEADVILLE      FAIR       6  -4  63 S5        29.68S WCI  -3
MONARCH PASS   MOCLDY     5   1  85 SW23      29.80S WCI -17
SALIDA         FAIR      27   6  41 SW12G17   29.84R WCI  17
SUNLIGHT       NOT AVBL
WILKERSON PASS FAIR       9   0  66 SW20G26   29.66R WCI -11
$$

COZ069>075-271300-
...SAN LUIS VALLEY/SANGRE DE CRISTO MOUNTAINS...

CITY           SKY/WX    TMP DP  RH WIND       PRES   REMARKS
ALAMOSA        CLOUDY    27  19  72 S16       29.81S WCI  15
LA VETA PASS   FAIR      18  10  73 S22G41    29.74R WCI   0
SAGUACHE       MOCLDY    12   3  67 NW12      29.84R WCI  -2
$$

COZ035-036-038>040-271300-
...NORTHERN COLORADO FRONT RANGE...

CITY           SKY/WX    TMP DP  RH WIND       PRES   REMARKS
DENVER INTL AP FAIR      22   4  46 S5        29.69R WCI  16
DMNS CITY PARK   N/A     20   7  57 E5        29.69S WCI  13
AURORA         PTCLDY    21   4  48 S6        29.68F WCI  14
FRONT RANGE AP FAIR      21   9  58 S8        29.69S WCI  12
ERIE MUNI ARPT FAIR      15  11  87 SW10G16   29.71R WCI   2
BOULDER MUN AP FAIR      21  14  73 CALM      29.68F
CENTENNIAL     FAIR      23   7  50 S7        29.67F WCI  15
BROOMFIELD     FAIR      21  14  73 CALM      29.68S
FORT COLLINS   FAIR      14  10  84 CALM      29.70F
LONGMONT       NOT AVBL
$$

COZ041-046-047-076>085-087-088-271300-
...PIKES PEAK/PALMER DIVIDE AND SOUTHERN FOOTHILLS...

CITY           SKY/WX    TMP DP  RH WIND       PRES   REMARKS
COLO. SPRINGS  FAIR      20  -1  40 NE7       29.69S WCI  11
A. F. ACADEMY  FAIR      24  -1  33 VRB5      29.67R WCI  19
SCHRIEVER AFB  FAIR      20   0  40 N8        29.70S WCI  11
ELLICOTT       NOT AVBL
FALCON         FAIR      20  -1  38 N5        29.70R WCI  14
FORT CARSON    FAIR      19  -1  42 VRB5      29.69R WCI  12
LIMON          FAIR       4   1  88 N3        29.73S
MONUMENT HILL  FAIR      23   5  46 W5        29.69S WCI  17
TRINIDAD       FAIR      22   2  42 CALM      29.74R
$$

COZ042>045-048>051-090-091-271300-
...NORTHEAST COLORADO...

CITY           SKY/WX    TMP DP  RH WIND       PRES   REMARKS
GREELEY ARPT   FAIR      12   8  84 NW3       29.72F
AKRON          FAIR      21   9  59 CALM      29.73R
BURLINGTON     FAIR      23  15  71 S12       29.76F WCI  12
WRAY           NOT AVBL
STERLING       FAIR      14  12  92 W8        29.73F WCI   3
HOLYOKE        FAIR      19  12  73 S5        29.77F WCI  13
FORT MORGAN    FAIR      14  10  86 CALM      29.74S
$$

COZ086-089-092>099-271300-
...SOUTHEAST COLORADO...

CITY           SKY/WX    TMP DP  RH WIND       PRES   REMARKS
PUEBLO         FAIR      13  -1  54 CALM      29.73S
LA JUNTA       FAIR      19   5  54 W8        29.76R WCI   9
LAMAR          FAIR      13   7  77 E7        29.76F WCI   3
SPRINGFIELD      N/A     18   9  68 W7        29.75F WCI   9
$$




USA.gov is the U.S. government's official web portal to all federal, state and local government web resources and services.